| time (UTC) | temp F | wind direction | speed MPH | gust MPH | rain 1hr in | rain 24hr in | rain mn in | humidity % | barometer mb |
| 20260904115504 | 72 | 172 | 1.0 | 3.0 | 0.00 | 0.14 | 0.00 | 92 | 1016.3 |
| 20260904115005 | 72 | 166 | 0.0 | 0.0 | 0.00 | 0.14 | 0.00 | 92 | 1016.2 |
| 20260904114504 | 72 | 168 | 0.0 | 0.0 | 0.00 | 0.14 | 0.00 | 91 | 1016.2 |
| 20260904114004 | 72 | 173 | 0.0 | 0.0 | 0.00 | 0.14 | 0.00 | 91 | 1016.2 |
| 20260904113503 | 72 | 165 | 0.0 | 0.0 | 0.00 | 0.14 | 0.00 | 91 | 1016.2 |
| 20260904113017 | 72 | 182 | 0.0 | 1.0 | 0.00 | 0.14 | 0.00 | 91 | 1016.2 |
| 20260904112504 | 72 | 169 | 1.0 | 2.0 | 0.00 | 0.14 | 0.00 | 91 | 1016.1 |
| 20260904112003 | 72 | 184 | 1.0 | 2.0 | 0.00 | 0.14 | 0.00 | 91 | 1016.1 |
| 20260904111503 | 72 | 186 | 1.0 | 2.0 | 0.00 | 0.14 | 0.00 | 90 | 1016.0 |
| 20260904111003 | 72 | 173 | 0.0 | 2.0 | 0.00 | 0.14 | 0.00 | 90 | 1016.0 |
| 20260904110503 | 72 | 182 | 0.0 | 2.0 | 0.00 | 0.14 | 0.00 | 91 | 1016.1 |
| 20260904110020 | 72 | 178 | 0.0 | 3.0 | 0.00 | 0.14 | 0.00 | 91 | 1016.0 |
| 20260904105504 | 72 | 184 | 1.0 | 3.0 | 0.00 | 0.14 | 0.00 | 91 | 1016.0 |
| 20260904105004 | 72 | 202 | 1.0 | 3.0 | 0.00 | 0.14 | 0.00 | 91 | 1016.0 |
| 20260904104511 | 72 | 181 | 2.0 | 3.0 | 0.00 | 0.14 | 0.00 | 91 | 1015.9 |
| 20260904104004 | 72 | 178 | 1.0 | 2.0 | 0.00 | 0.14 | 0.00 | 91 | 1015.9 |
| 20260904103507 | 72 | 190 | 1.0 | 2.0 | 0.00 | 0.14 | 0.00 | 91 | 1015.8 |
| 20260904103016 | 72 | 179 | 1.0 | 2.0 | 0.00 | 0.14 | 0.00 | 91 | 1015.8 |
| 20260904102504 | 72 | 190 | 1.0 | 2.0 | 0.00 | 0.14 | 0.00 | 91 | 1015.7 |
| 20260904102005 | 72 | 211 | 1.0 | 2.0 | 0.00 | 0.14 | 0.00 | 92 | 1015.7 |
| 20260904101508 | 72 | 201 | 1.0 | 2.0 | 0.00 | 0.14 | 0.00 | 92 | 1015.8 |
| 20260904101008 | 72 | 188 | 0.0 | 2.0 | 0.00 | 0.14 | 0.00 | 92 | 1015.7 |
| 20260904100508 | 72 | 360 | 0.0 | 2.0 | 0.00 | 0.14 | 0.00 | 92 | 1015.7 |
| 20260904100004 | 72 | 198 | 1.0 | 2.0 | 0.00 | 0.14 | 0.00 | 92 | 1015.6 |
| 20260904095504 | 72 | 196 | 1.0 | 2.0 | 0.00 | 0.14 | 0.00 | 92 | 1015.5 |
| 20260904095004 | 72 | 142 | 1.0 | 2.0 | 0.00 | 0.14 | 0.00 | 92 | 1015.7 |
| 20260904094507 | 72 | 149 | 1.0 | 4.0 | 0.00 | 0.14 | 0.00 | 92 | 1015.6 |
| 20260904094005 | 72 | 190 | 1.0 | 4.0 | 0.00 | 0.14 | 0.00 | 92 | 1015.7 |
| 20260904093505 | 72 | 153 | 2.0 | 4.0 | 0.00 | 0.14 | 0.00 | 92 | 1015.6 |
| 20260904093016 | 72 | 166 | 2.0 | 3.0 | 0.00 | 0.14 | 0.00 | 92 | 1015.7 |
| 20260904092508 | 72 | 139 | 1.0 | 4.0 | 0.00 | 0.14 | 0.00 | 92 | 1015.7 |
| 20260904092004 | 72 | 150 | 2.0 | 4.0 | 0.00 | 0.14 | 0.00 | 92 | 1015.6 |
| 20260904091520 | 72 | 141 | 1.0 | 3.0 | 0.00 | 0.14 | 0.00 | 92 | 1015.7 |
| 20260904091006 | 72 | 144 | 1.0 | 3.0 | 0.00 | 0.14 | 0.00 | 92 | 1015.7 |
| 20260904090509 | 71 | 137 | 2.0 | 3.0 | 0.00 | 0.14 | 0.00 | 92 | 1015.7 |
| 20260904090020 | 71 | 143 | 1.0 | 2.0 | 0.00 | 0.14 | 0.00 | 92 | 1015.7 |
| 20260904085506 | 71 | 136 | 1.0 | 2.0 | 0.00 | 0.14 | 0.00 | 92 | 1015.6 |
| 20260904085006 | 71 | 134 | 1.0 | 3.0 | 0.00 | 0.14 | 0.00 | 91 | 1015.6 |
| 20260904084506 | 71 | 140 | 1.0 | 3.0 | 0.00 | 0.14 | 0.00 | 91 | 1015.6 |
| 20260904084005 | 71 | 148 | 1.0 | 4.0 | 0.00 | 0.14 | 0.00 | 91 | 1015.5 |
| 20260904083506 | 71 | 145 | 1.0 | 4.0 | 0.00 | 0.14 | 0.00 | 91 | 1015.6 |
| 20260904083012 | 71 | 144 | 2.0 | 3.0 | 0.00 | 0.14 | 0.00 | 91 | 1015.6 |
| 20260904082507 | 71 | 148 | 2.0 | 4.0 | 0.00 | 0.14 | 0.00 | 91 | 1015.7 |
| 20260904082007 | 71 | 360 | 2.0 | 4.0 | 0.00 | 0.14 | 0.00 | 91 | 1015.6 |
| 20260904081512 | 71 | 160 | 2.0 | 4.0 | 0.00 | 0.14 | 0.00 | 91 | 1015.6 |
| 20260904081010 | 72 | 161 | 1.0 | 4.0 | 0.00 | 0.14 | 0.00 | 91 | 1015.6 |
| 20260904080512 | 72 | 160 | 1.0 | 3.0 | 0.00 | 0.14 | 0.00 | 91 | 1015.5 |
| 20260904080010 | 72 | 360 | 2.0 | 3.0 | 0.00 | 0.14 | 0.00 | 91 | 1015.5 |
| 20260904075512 | 72 | 360 | 2.0 | 4.0 | 0.00 | 0.14 | 0.00 | 91 | 1015.6 |
| 20260904075007 | 72 | 173 | 2.0 | 4.0 | 0.00 | 0.14 | 0.00 | 91 | 1015.6 |
| 20260904074521 | 72 | 180 | 1.0 | 2.0 | 0.00 | 0.14 | 0.00 | 91 | 1015.5 |
| 20260904074011 | 72 | 183 | 1.0 | 2.0 | 0.00 | 0.14 | 0.00 | 91 | 1015.5 |
| 20260904073507 | 72 | 190 | 1.0 | 2.0 | 0.00 | 0.14 | 0.00 | 91 | 1015.6 |
| 20260904073012 | 72 | 194 | 1.0 | 2.0 | 0.00 | 0.14 | 0.00 | 91 | 1015.5 |
| 20260904072507 | 72 | 198 | 1.0 | 2.0 | 0.00 | 0.14 | 0.00 | 91 | 1015.4 |
| 20260904072007 | 72 | 213 | 1.0 | 2.0 | 0.00 | 0.14 | 0.00 | 91 | 1015.5 |
| 20260904071517 | 72 | 202 | 1.0 | 2.0 | 0.00 | 0.14 | 0.00 | 91 | 1015.6 |
| 20260904071008 | 72 | 215 | 0.0 | 2.0 | 0.00 | 0.14 | 0.00 | 91 | 1015.6 |
| 20260904070516 | 72 | 210 | 0.0 | 2.0 | 0.00 | 0.14 | 0.00 | 91 | 1015.6 |
| 20260904070038 | 72 | 215 | 0.0 | 2.0 | 0.00 | 0.14 | 0.00 | 91 | 1015.6 |
| 20260904065508 | 72 | 217 | 0.0 | 2.0 | 0.00 | 0.14 | 0.00 | 91 | 1015.5 |
| 20260904065014 | 73 | 207 | 0.0 | 0.0 | 0.00 | 0.14 | 0.00 | 91 | 1015.6 |
| 20260904064521 | 73 | 209 | 0.0 | 0.0 | 0.00 | 0.14 | 0.00 | 91 | 1015.6 |
| 20260904064005 | 73 | 197 | 0.0 | 0.0 | 0.00 | 0.14 | 0.00 | 91 | 1015.8 |
| 20260904063510 | 73 | 196 | 0.0 | 0.0 | 0.00 | 0.14 | 0.00 | 91 | 1015.9 |
| 20260904063006 | 73 | 192 | 0.0 | 0.0 | 0.00 | 0.14 | 0.00 | 91 | 1015.8 |
| 20260904062503 | 73 | 207 | 0.0 | 2.0 | 0.00 | 0.14 | 0.00 | 91 | 1015.9 |
| 20260904062003 | 73 | 180 | 0.0 | 2.0 | 0.00 | 0.14 | 0.00 | 91 | 1015.8 |
| 20260904061515 | 73 | 333 | 0.0 | 4.0 | 0.00 | 0.14 | 0.00 | 91 | 1015.8 |
| 20260904061008 | 72 | 344 | 1.0 | 4.0 | 0.00 | 0.14 | 0.00 | 91 | 1015.8 |
| 20260904060503 | 72 | 346 | 1.0 | 3.0 | 0.00 | 0.14 | 0.00 | 91 | 1015.9 |
| 20260904060003 | 73 | 345 | 1.0 | 3.0 | 0.00 | 0.14 | 0.00 | 91 | 1016.0 |
| 20260904055504 | 73 | 346 | 1.0 | 3.0 | 0.00 | 0.14 | 0.00 | 91 | 1016.0 |
| 20260904055002 | 73 | 207 | 1.0 | 4.0 | 0.00 | 0.14 | 0.00 | 91 | 1016.0 |
| 20260904054504 | 73 | 167 | 1.0 | 4.0 | 0.00 | 0.14 | 0.00 | 90 | 1015.9 |
| 20260904054005 | 73 | 150 | 1.0 | 2.0 | 0.00 | 0.14 | 0.00 | 90 | 1015.9 |
| 20260904053503 | 73 | 150 | 0.0 | 2.0 | 0.00 | 0.14 | 0.00 | 90 | 1015.9 |
| 20260904053006 | 73 | 150 | 0.0 | 2.0 | 0.00 | 0.14 | 0.00 | 91 | 1015.9 |
| 20260904052503 | 73 | 150 | 0.0 | 1.0 | 0.00 | 0.14 | 0.00 | 91 | 1016.1 |
| 20260904052004 | 73 | 152 | 0.0 | 2.0 | 0.00 | 0.14 | 0.00 | 91 | 1016.0 |
| 20260904051509 | 73 | 150 | 0.0 | 2.0 | 0.00 | 0.14 | 0.00 | 91 | 1016.0 |
| 20260904051010 | 73 | 150 | 0.0 | 0.0 | 0.00 | 0.14 | 0.00 | 90 | 1015.9 |
| 20260904050505 | 73 | 150 | 0.0 | 0.0 | 0.00 | 0.14 | 0.00 | 90 | 1015.9 |
| 20260904050012 | 73 | 150 | 0.0 | 0.0 | 0.00 | 0.14 | 0.00 | 90 | 1015.8 |
| 20260904045510 | 73 | 149 | 0.0 | 0.0 | 0.00 | 0.14 | 0.14 | 90 | 1015.9 |
| 20260904045002 | 73 | 149 | 0.0 | 1.0 | 0.00 | 0.14 | 0.14 | 90 | 1015.9 |
| 20260904044504 | 73 | 149 | 0.0 | 2.0 | 0.00 | 0.14 | 0.14 | 91 | 1015.9 |
| 20260904044003 | 73 | 149 | 0.0 | 2.0 | 0.00 | 0.14 | 0.14 | 90 | 1015.9 |
| 20260904043503 | 73 | 149 | 0.0 | 2.0 | 0.00 | 0.14 | 0.14 | 90 | 1015.8 |
| 20260904043011 | 73 | 149 | 1.0 | 2.0 | 0.00 | 0.14 | 0.14 | 90 | 1015.7 |
| 20260904042505 | 73 | 139 | 1.0 | 2.0 | 0.00 | 0.14 | 0.14 | 90 | 1015.9 |
| 20260904042004 | 73 | 138 | 1.0 | 2.0 | 0.00 | 0.14 | 0.14 | 90 | 1015.8 |
| 20260904041507 | 73 | 137 | 1.0 | 2.0 | 0.00 | 0.14 | 0.14 | 90 | 1015.8 |
| 20260904041004 | 73 | 137 | 1.0 | 1.0 | 0.00 | 0.14 | 0.14 | 90 | 1016.0 |
| 20260904040503 | 74 | 137 | 1.0 | 2.0 | 0.00 | 0.14 | 0.14 | 90 | 1016.0 |
| 20260904040014 | 74 | 137 | 1.0 | 2.0 | 0.00 | 0.14 | 0.14 | 90 | 1015.9 |
| 20260904035507 | 74 | 137 | 0.0 | 2.0 | 0.00 | 0.14 | 0.14 | 90 | 1015.9 |
| 20260904035008 | 74 | 137 | 1.0 | 4.0 | 0.00 | 0.14 | 0.14 | 90 | 1015.9 |
| 20260904034534 | 74 | 137 | 2.0 | 4.0 | 0.00 | 0.14 | 0.14 | 90 | 1015.9 |
| 20260904034003 | 74 | 130 | 1.0 | 3.0 | 0.00 | 0.14 | 0.14 | 90 | 1016.0 |
| 20260904033505 | 74 | 116 | 2.0 | 3.0 | 0.00 | 0.14 | 0.14 | 90 | 1016.1 |
| 20260904033003 | 74 | 124 | 2.0 | 3.0 | 0.00 | 0.14 | 0.14 | 90 | 1016.2 |
| 20260904032503 | 74 | 135 | 1.0 | 3.0 | 0.00 | 0.14 | 0.14 | 90 | 1016.2 |
| 20260904032004 | 74 | 103 | 2.0 | 3.0 | 0.00 | 0.14 | 0.14 | 90 | 1016.1 |
| 20260904031506 | 74 | 75 | 0.0 | 3.0 | 0.00 | 0.14 | 0.14 | 90 | 1016.1 |
| 20260904031004 | 74 | 74 | 1.0 | 3.0 | 0.00 | 0.14 | 0.14 | 90 | 1016.1 |
| 20260904030506 | 75 | 38 | 2.0 | 2.0 | 0.00 | 0.14 | 0.14 | 90 | 1016.1 |
| 20260904030004 | 75 | 38 | 1.0 | 2.0 | 0.00 | 0.14 | 0.14 | 90 | 1016.0 |
| 20260904025508 | 75 | 38 | 1.0 | 2.0 | 0.00 | 0.14 | 0.14 | 90 | 1016.0 |
| 20260904025004 | 75 | 38 | 1.0 | 2.0 | 0.00 | 0.14 | 0.14 | 89 | 1016.0 |
| 20260904024504 | 75 | 38 | 1.0 | 2.0 | 0.00 | 0.14 | 0.14 | 89 | 1016.1 |
| 20260904024007 | 75 | 38 | 0.0 | 3.0 | 0.00 | 0.14 | 0.14 | 89 | 1016.1 |
| 20260904023505 | 75 | 38 | 1.0 | 3.0 | 0.00 | 0.14 | 0.14 | 89 | 1016.1 |
| 20260904023019 | 75 | 38 | 1.0 | 3.0 | 0.00 | 0.14 | 0.14 | 89 | 1016.0 |
| 20260904022507 | 75 | 38 | 0.0 | 2.0 | 0.00 | 0.14 | 0.14 | 89 | 1016.0 |
| 20260904022005 | 76 | 38 | 1.0 | 2.0 | 0.00 | 0.14 | 0.14 | 89 | 1016.0 |
| 20260904021504 | 76 | 38 | 0.0 | 3.0 | 0.00 | 0.14 | 0.14 | 89 | 1015.9 |
| 20260904021004 | 76 | 38 | 1.0 | 3.0 | 0.00 | 0.14 | 0.14 | 89 | 1015.9 |
| 20260904020504 | 76 | 38 | 1.0 | 3.0 | 0.00 | 0.14 | 0.14 | 89 | 1015.9 |
| 20260904020006 | 76 | 38 | 2.0 | 3.0 | 0.00 | 0.14 | 0.14 | 89 | 1015.9 |
| 20260904015508 | 76 | 38 | 2.0 | 3.0 | 0.00 | 0.14 | 0.14 | 89 | 1015.8 |
| 20260904015009 | 76 | 38 | 1.0 | 3.0 | 0.00 | 0.14 | 0.14 | 89 | 1015.7 |
| 20260904014510 | 76 | 38 | 1.0 | 4.0 | 0.00 | 0.14 | 0.14 | 88 | 1015.6 |
| 20260904014006 | 76 | 39 | 2.0 | 4.0 | 0.00 | 0.14 | 0.14 | 89 | 1015.6 |
| 20260904013506 | 77 | 9 | 2.0 | 4.0 | 0.00 | 0.14 | 0.14 | 89 | 1015.5 |
| 20260904013009 | 77 | 28 | 2.0 | 4.0 | 0.00 | 0.14 | 0.14 | 89 | 1015.5 |
| 20260904012510 | 77 | 42 | 2.0 | 3.0 | 0.00 | 0.14 | 0.14 | 89 | 1015.7 |
| 20260904012011 | 77 | 145 | 1.0 | 3.0 | 0.00 | 0.14 | 0.14 | 89 | 1015.7 |
| 20260904011528 | 77 | 96 | 2.0 | 3.0 | 0.00 | 0.14 | 0.14 | 89 | 1015.5 |
| 20260904011012 | 77 | 74 | 2.0 | 3.0 | 0.00 | 0.14 | 0.14 | 89 | 1015.5 |
| 20260904010504 | 78 | 30 | 2.0 | 3.0 | 0.00 | 0.14 | 0.14 | 89 | 1015.1 |
| 20260904010008 | 78 | 28 | 2.0 | 4.0 | 0.00 | 0.14 | 0.14 | 88 | 1015.1 |
| 20260904005506 | 78 | 14 | 3.0 | 4.0 | 0.00 | 0.14 | 0.14 | 88 | 1015.4 |
| 20260904005005 | 78 | 19 | 2.0 | 3.0 | 0.00 | 0.14 | 0.14 | 88 | 1015.2 |
| 20260904004511 | 79 | 9 | 2.0 | 2.0 | 0.00 | 0.14 | 0.14 | 87 | 1015.2 |
| 20260904004008 | 79 | 9 | 1.0 | 2.0 | 0.00 | 0.14 | 0.14 | 86 | 1015.1 |
| 20260904003511 | 79 | 9 | 1.0 | 3.0 | 0.00 | 0.14 | 0.14 | 86 | 1015.1 |
| 20260904003015 | 80 | 333 | 2.0 | 3.0 | 0.00 | 0.14 | 0.14 | 84 | 1015.1 |
| 20260904002510 | 80 | 15 | 2.0 | 3.0 | 0.00 | 0.14 | 0.14 | 84 | 1015.1 |
| 20260904002003 | 81 | 18 | 1.0 | 2.0 | 0.00 | 0.14 | 0.14 | 83 | 1015.2 |
| 20260904001526 | 81 | 18 | 1.0 | 2.0 | 0.00 | 0.14 | 0.14 | 83 | 1015.1 |
| 20260904001008 | 82 | 17 | 1.0 | 2.0 | 0.00 | 0.14 | 0.14 | 81 | 1015.1 |
| 20260904000514 | 82 | 18 | 0.0 | 2.0 | 0.00 | 0.14 | 0.14 | 81 | 1015.1 |
| 20260904000037 | 83 | 17 | 0.0 | 4.0 | 0.00 | 0.14 | 0.14 | 81 | 1015.1 |
| 20260903235509 | 83 | 348 | 1.0 | 5.0 | 0.00 | 0.14 | 0.14 | 80 | 1015.1 |
| 20260903235006 | 84 | 348 | 3.0 | 5.0 | 0.00 | 0.14 | 0.14 | 76 | 1015.0 |
| 20260903234514 | 84 | 301 | 0.0 | 3.0 | 0.00 | 0.14 | 0.14 | 79 | 1015.0 |
| 20260903234004 | 84 | 300 | 1.0 | 5.0 | 0.00 | 0.14 | 0.14 | 79 | 1015.0 |
| 20260903233505 | 85 | 337 | 1.0 | 5.0 | 0.00 | 0.14 | 0.14 | 78 | 1014.8 |
| 20260903233019 | 85 | 325 | 3.0 | 5.0 | 0.00 | 0.14 | 0.14 | 77 | 1014.8 |
| 20260903232510 | 85 | 317 | 1.0 | 4.0 | 0.00 | 0.14 | 0.14 | 78 | 1014.7 |
| 20260903232010 | 85 | 326 | 2.0 | 4.0 | 0.00 | 0.14 | 0.14 | 79 | 1014.9 |
| 20260903231513 | 85 | 348 | 2.0 | 2.0 | 0.00 | 0.14 | 0.14 | 83 | 1014.9 |
| 20260903231011 | 85 | 136 | 0.0 | 2.0 | 0.00 | 0.14 | 0.14 | 83 | 1014.9 |
| 20260903230513 | 85 | 136 | 0.0 | 0.0 | 0.00 | 0.14 | 0.14 | 84 | 1014.6 |
| 20260903230014 | 85 | 136 | 0.0 | 0.0 | 0.00 | 0.14 | 0.14 | 85 | 1014.6 |
| 20260903225514 | 84 | 194 | 0.0 | 2.0 | 0.00 | 0.14 | 0.14 | 85 | 1014.6 |
| 20260903225009 | 84 | 180 | 0.0 | 2.0 | 0.00 | 0.14 | 0.14 | 85 | 1014.6 |
| 20260903224530 | 83 | 136 | 0.0 | 2.0 | 0.00 | 0.14 | 0.14 | 84 | 1014.6 |
| 20260903224010 | 84 | 116 | 1.0 | 2.0 | 0.00 | 0.14 | 0.14 | 83 | 1014.5 |
| 20260903223508 | 84 | 115 | 1.0 | 2.0 | 0.00 | 0.14 | 0.14 | 82 | 1014.5 |
| 20260903223016 | 85 | 95 | 0.0 | 1.0 | 0.00 | 0.14 | 0.14 | 83 | 1014.5 |
| 20260903222510 | 85 | 94 | 0.0 | 2.0 | 0.00 | 0.14 | 0.14 | 84 | 1014.5 |
| 20260903222004 | 85 | 96 | 1.0 | 2.0 | 0.01 | 0.14 | 0.14 | 83 | 1014.4 |
| 20260903221515 | 85 | 243 | 0.0 | 2.0 | 0.06 | 0.15 | 0.14 | 83 | 1014.4 |
| 20260903221009 | 84 | 281 | 1.0 | 3.0 | 0.14 | 0.20 | 0.14 | 82 | 1014.4 |
| 20260903220512 | 83 | 276 | 1.0 | 3.0 | 0.14 | 0.20 | 0.14 | 83 | 1014.3 |
| 20260903220023 | 82 | 305 | 0.0 | 2.0 | 0.14 | 0.20 | 0.14 | 87 | 1014.3 |
| 20260903215508 | 81 | 328 | 0.0 | 2.0 | 0.14 | 0.20 | 0.14 | 87 | 1014.3 |
| 20260903215016 | 80 | 247 | 1.0 | 3.0 | 0.14 | 0.20 | 0.14 | 87 | 1014.3 |
| 20260903214529 | 80 | 348 | 2.0 | 3.0 | 0.14 | 0.20 | 0.14 | 84 | 1014.2 |
| 20260903214005 | 80 | 66 | 1.0 | 4.0 | 0.14 | 0.20 | 0.14 | 83 | 1014.3 |
| 20260903213511 | 81 | 5 | 3.0 | 7.0 | 0.14 | 0.20 | 0.14 | 79 | 1014.4 |
| 20260903213029 | 82 | 42 | 0.0 | 7.0 | 0.14 | 0.20 | 0.14 | 77 | 1014.4 |
| 20260903212515 | 85 | 274 | 5.0 | 25.0 | 0.14 | 0.20 | 0.14 | 70 | 1014.4 |
| 20260903212012 | 87 | 271 | 5.0 | 26.0 | 0.13 | 0.19 | 0.13 | 55 | 1014.7 |
| 20260903211519 | 92 | 109 | 11.0 | 26.0 | 0.08 | 0.14 | 0.08 | 59 | 1014.7 |
| 20260903211011 | 92 | 156 | 1.0 | 5.0 | 0.00 | 0.06 | 0.00 | 49 | 1014.5 |
| 20260903210509 | 92 | 147 | 1.0 | 5.0 | 0.00 | 0.06 | 0.00 | 50 | 1014.5 |
| 20260903210018 | 93 | 162 | 1.0 | 8.0 | 0.00 | 0.06 | 0.00 | 48 | 1014.4 |
| 20260903205515 | 93 | 82 | 1.0 | 10.0 | 0.00 | 0.06 | 0.00 | 46 | 1014.4 |
| 20260903205012 | 94 | 87 | 2.0 | 10.0 | 0.00 | 0.06 | 0.00 | 46 | 1014.4 |
| 20260903204526 | 94 | 137 | 5.0 | 10.0 | 0.00 | 0.06 | 0.00 | 45 | 1014.5 |
| 20260903204014 | 95 | 117 | 5.0 | 8.0 | 0.00 | 0.06 | 0.00 | 43 | 1014.5 |
| 20260903203514 | 95 | 180 | 3.0 | 5.0 | 0.00 | 0.06 | 0.00 | 43 | 1014.5 |
| 20260903203045 | 94 | 181 | 2.0 | 7.0 | 0.00 | 0.06 | 0.00 | 46 | 1014.5 |
| 20260903202516 | 94 | 130 | 4.0 | 11.0 | 0.00 | 0.06 | 0.00 | 46 | 1014.7 |
| 20260903202017 | 94 | 111 | 4.0 | 13.0 | 0.00 | 0.06 | 0.00 | 45 | 1014.7 |
| 20260903201535 | 96 | 113 | 7.0 | 13.0 | 0.00 | 0.06 | 0.00 | 44 | 1014.9 |
| 20260903201010 | 97 | 153 | 5.0 | 12.0 | 0.00 | 0.06 | 0.00 | 42 | 1015.0 |
| 20260903200517 | 98 | 96 | 7.0 | 11.0 | 0.00 | 0.06 | 0.00 | 40 | 1015.0 |
| 20260903200017 | 97 | 158 | 5.0 | 13.0 | 0.00 | 0.06 | 0.00 | 38 | 1014.9 |
| 20260903195511 | 98 | 70 | 10.0 | 13.0 | 0.00 | 0.06 | 0.00 | 40 | 1015.1 |
| 20260903195012 | 99 | 150 | 4.0 | 15.0 | 0.00 | 0.06 | 0.00 | 41 | 1015.1 |
| 20260903194523 | 98 | 128 | 5.0 | 15.0 | 0.00 | 0.06 | 0.00 | 40 | 1015.1 |
| 20260903194017 | 97 | 154 | 6.0 | 13.0 | 0.00 | 0.06 | 0.00 | 41 | 1015.2 |
| 20260903193517 | 97 | 121 | 4.0 | 13.0 | 0.00 | 0.06 | 0.00 | 41 | 1015.3 |
| 20260903193031 | 96 | 117 | 6.0 | 14.0 | 0.00 | 0.06 | 0.00 | 40 | 1015.5 |
| 20260903192513 | 97 | 118 | 9.0 | 14.0 | 0.00 | 0.06 | 0.00 | 39 | 1015.5 |
| 20260903192012 | 98 | 129 | 8.0 | 12.0 | 0.00 | 0.06 | 0.00 | 41 | 1015.6 |
| 20260903191519 | 98 | 159 | 6.0 | 12.0 | 0.00 | 0.06 | 0.00 | 40 | 1015.6 |
| 20260903191014 | 98 | 167 | 5.0 | 15.0 | 0.00 | 0.06 | 0.00 | 42 | 1015.7 |
| 20260903190514 | 97 | 165 | 4.0 | 15.0 | 0.00 | 0.06 | 0.00 | 40 | 1015.7 |
| 20260903190034 | 97 | 165 | 4.0 | 12.0 | 0.00 | 0.06 | 0.00 | 44 | 1015.6 |
| 20260903185518 | 96 | 138 | 6.0 | 12.0 | 0.00 | 0.06 | 0.00 | 44 | 1015.7 |
| 20260903185014 | 96 | 186 | 5.0 | 13.0 | 0.00 | 0.06 | 0.00 | 43 | 1015.7 |
| 20260903184520 | 95 | 60 | 5.0 | 16.0 | 0.00 | 0.06 | 0.00 | 48 | 1015.9 |
| 20260903184015 | 95 | 106 | 4.0 | 17.0 | 0.00 | 0.06 | 0.00 | 47 | 1016.0 |
| 20260903183509 | 95 | 128 | 11.0 | 19.0 | 0.00 | 0.06 | 0.00 | 45 | 1016.2 |
| 20260903183036 | 97 | 84 | 10.0 | 19.0 | 0.00 | 0.06 | 0.00 | 43 | 1016.2 |
| 20260903182517 | 96 | 89 | 3.0 | 10.0 | 0.00 | 0.06 | 0.00 | 47 | 1016.2 |
| 20260903182016 | 96 | 159 | 4.0 | 12.0 | 0.00 | 0.06 | 0.00 | 45 | 1016.4 |
| 20260903181512 | 95 | 131 | 7.0 | 12.0 | 0.00 | 0.06 | 0.00 | 44 | 1016.4 |
| 20260903181003 | 95 | 158 | 5.0 | 12.0 | 0.00 | 0.06 | 0.00 | 46 | 1016.6 |
| 20260903180507 | 95 | 161 | 5.0 | 11.0 | 0.00 | 0.06 | 0.00 | 48 | 1016.6 |
| 20260903180017 | 94 | 198 | 6.0 | 11.0 | 0.00 | 0.06 | 0.00 | 49 | 1016.7 |
| 20260903175502 | 93 | 142 | 1.0 | 12.0 | 0.00 | 0.06 | 0.00 | 49 | 1016.6 |
| 20260903175007 | 93 | 105 | 5.0 | 12.0 | 0.00 | 0.06 | 0.00 | 48 | 1016.7 |
| 20260903174505 | 95 | 163 | 4.0 | 12.0 | 0.00 | 0.06 | 0.00 | 47 | 1016.7 |
| 20260903174003 | 95 | 63 | 4.0 | 12.0 | 0.00 | 0.06 | 0.00 | 45 | 1016.7 |
| 20260903173504 | 95 | 119 | 2.0 | 9.0 | 0.00 | 0.06 | 0.00 | 49 | 1016.8 |
| 20260903173004 | 95 | 182 | 4.0 | 11.0 | 0.00 | 0.06 | 0.00 | 47 | 1017.0 |
| 20260903172504 | 95 | 198 | 5.0 | 11.0 | 0.00 | 0.06 | 0.00 | 47 | 1017.1 |
| 20260903172004 | 95 | 153 | 4.0 | 11.0 | 0.00 | 0.06 | 0.00 | 48 | 1017.2 |
| 20260903171503 | 94 | 219 | 5.0 | 12.0 | 0.00 | 0.06 | 0.00 | 50 | 1017.3 |
| 20260903171004 | 93 | 147 | 3.0 | 12.0 | 0.00 | 0.06 | 0.00 | 53 | 1017.4 |
| 20260903170503 | 93 | 128 | 7.0 | 11.0 | 0.00 | 0.06 | 0.00 | 50 | 1017.5 |
| 20260903170016 | 94 | 88 | 6.0 | 11.0 | 0.00 | 0.06 | 0.00 | 49 | 1017.4 |
| 20260903165504 | 93 | 57 | 1.0 | 9.0 | 0.00 | 0.06 | 0.00 | 53 | 1017.5 |
| 20260903165004 | 92 | 96 | 4.0 | 11.0 | 0.00 | 0.06 | 0.00 | 51 | 1017.5 |
| 20260903164511 | 93 | 57 | 8.0 | 11.0 | 0.00 | 0.06 | 0.00 | 52 | 1017.5 |
| 20260903164004 | 93 | 61 | 2.0 | 7.0 | 0.00 | 0.06 | 0.00 | 52 | 1017.6 |
| 20260903163503 | 93 | 53 | 5.0 | 7.0 | 0.00 | 0.06 | 0.00 | 51 | 1017.6 |
| 20260903163015 | 92 | 92 | 2.0 | 10.0 | 0.00 | 0.06 | 0.00 | 54 | 1017.7 |
| 20260903162506 | 92 | 104 | 5.0 | 10.0 | 0.00 | 0.06 | 0.00 | 57 | 1017.6 |
| 20260903162004 | 91 | 32 | 3.0 | 9.0 | 0.00 | 0.06 | 0.00 | 57 | 1017.7 |
| 20260903161504 | 92 | 59 | 4.0 | 9.0 | 0.00 | 0.06 | 0.00 | 55 | 1017.8 |
| 20260903161006 | 92 | 107 | 5.0 | 9.0 | 0.00 | 0.06 | 0.00 | 55 | 1017.9 |
| 20260903160504 | 92 | 313 | 0.0 | 6.0 | 0.00 | 0.06 | 0.00 | 57 | 1018.0 |
| 20260903160007 | 92 | 107 | 3.0 | 6.0 | 0.00 | 0.06 | 0.00 | 57 | 1018.1 |
| 20260903155503 | 92 | 173 | 3.0 | 6.0 | 0.00 | 0.06 | 0.00 | 56 | 1018.1 |
| 20260903155004 | 92 | 59 | 2.0 | 8.0 | 0.00 | 0.06 | 0.00 | 57 | 1018.1 |
| 20260903154506 | 91 | 150 | 2.0 | 9.0 | 0.00 | 0.06 | 0.00 | 57 | 1018.2 |
| 20260903154008 | 91 | 99 | 6.0 | 9.0 | 0.00 | 0.06 | 0.00 | 60 | 1018.2 |
| 20260903153507 | 91 | 113 | 5.0 | 8.0 | 0.00 | 0.06 | 0.00 | 56 | 1018.3 |
| 20260903153004 | 91 | 175 | 3.0 | 7.0 | 0.00 | 0.06 | 0.00 | 58 | 1018.3 |
| 20260903152511 | 91 | 130 | 3.0 | 7.0 | 0.00 | 0.06 | 0.00 | 54 | 1018.2 |
| 20260903152007 | 91 | 176 | 3.0 | 9.0 | 0.00 | 0.06 | 0.00 | 58 | 1018.2 |
| 20260903151505 | 91 | 66 | 4.0 | 9.0 | 0.00 | 0.06 | 0.00 | 54 | 1018.2 |
| 20260903151003 | 91 | 40 | 1.0 | 6.0 | 0.00 | 0.06 | 0.00 | 55 | 1018.2 |
| 20260903150503 | 91 | 80 | 4.0 | 6.0 | 0.00 | 0.06 | 0.00 | 58 | 1018.1 |
| 20260903150006 | 91 | 63 | 2.0 | 4.0 | 0.00 | 0.06 | 0.00 | 58 | 1018.1 |
| 20260903145505 | 91 | 123 | 2.0 | 4.0 | 0.00 | 0.06 | 0.00 | 61 | 1018.1 |
| 20260903145004 | 91 | 57 | 1.0 | 3.0 | 0.00 | 0.06 | 0.00 | 61 | 1018.1 |
| 20260903144532 | 90 | 51 | 2.0 | 3.0 | 0.00 | 0.06 | 0.00 | 59 | 1018.1 |
| 20260903144005 | 90 | 12 | 1.0 | 3.0 | 0.00 | 0.06 | 0.00 | 61 | 1018.0 |
| 20260903143504 | 90 | 70 | 2.0 | 3.0 | 0.00 | 0.06 | 0.00 | 63 | 1017.9 |
| 20260903143020 | 89 | 46 | 0.0 | 1.0 | 0.00 | 0.06 | 0.00 | 65 | 1017.9 |
| 20260903142506 | 88 | 40 | 0.0 | 3.0 | 0.00 | 0.06 | 0.00 | 67 | 1018.0 |
| 20260903142011 | 88 | 40 | 1.0 | 3.0 | 0.00 | 0.06 | 0.00 | 68 | 1017.9 |
| 20260903141515 | 88 | 124 | 0.0 | 0.0 | 0.00 | 0.06 | 0.00 | 66 | 1017.9 |
| 20260903141003 | 87 | 75 | 0.0 | 0.0 | 0.00 | 0.06 | 0.00 | 68 | 1017.9 |
| 20260903140510 | 87 | 243 | 0.0 | 0.0 | 0.00 | 0.06 | 0.00 | 69 | 1017.9 |
| 20260903140010 | 86 | 295 | 0.0 | 0.0 | 0.00 | 0.06 | 0.00 | 71 | 1017.9 |
| 20260903135504 | 86 | 126 | 0.0 | 0.0 | 0.00 | 0.06 | 0.00 | 76 | 1017.9 |
| 20260903135005 | 85 | 248 | 0.0 | 0.0 | 0.00 | 0.06 | 0.00 | 73 | 1017.9 |
| 20260903134505 | 84 | 126 | 0.0 | 0.0 | 0.00 | 0.06 | 0.00 | 74 | 1017.9 |
| 20260903134003 | 84 | 126 | 0.0 | 0.0 | 0.00 | 0.06 | 0.00 | 74 | 1017.9 |
| 20260903133509 | 84 | 124 | 0.0 | 0.0 | 0.00 | 0.06 | 0.00 | 74 | 1018.0 |
| 20260903133008 | 83 | 150 | 0.0 | 0.0 | 0.00 | 0.06 | 0.00 | 77 | 1018.0 |
| 20260903132512 | 83 | 97 | 0.0 | 0.0 | 0.00 | 0.06 | 0.00 | 78 | 1018.0 |
| 20260903132007 | 82 | 90 | 0.0 | 0.0 | 0.00 | 0.06 | 0.00 | 80 | 1018.0 |
| 20260903131503 | 81 | 90 | 0.0 | 0.0 | 0.00 | 0.06 | 0.00 | 80 | 1017.9 |
| 20260903131009 | 81 | 90 | 0.0 | 0.0 | 0.00 | 0.06 | 0.00 | 82 | 1017.9 |
| 20260903130508 | 80 | 90 | 0.0 | 0.0 | 0.00 | 0.06 | 0.00 | 84 | 1017.9 |
| 20260903130024 | 79 | 98 | 0.0 | 0.0 | 0.00 | 0.06 | 0.00 | 85 | 1017.9 |
| 20260903125512 | 78 | 107 | 0.0 | 0.0 | 0.00 | 0.06 | 0.00 | 86 | 1017.8 |
| 20260903125007 | 78 | 165 | 0.0 | 0.0 | 0.00 | 0.06 | 0.00 | 89 | 1017.8 |
| 20260903124525 | 77 | 165 | 0.0 | 0.0 | 0.00 | 0.06 | 0.00 | 92 | 1017.6 |
| 20260903124004 | 76 | 165 | 0.0 | 0.0 | 0.00 | 0.06 | 0.00 | 93 | 1017.6 |
| 20260903123506 | 75 | 165 | 0.0 | 0.0 | 0.00 | 0.06 | 0.00 | 93 | 1017.6 |
| 20260903123009 | 74 | 168 | 0.0 | 0.0 | 0.00 | 0.06 | 0.00 | 93 | 1017.6 |
| 20260903122508 | 74 | 167 | 0.0 | 0.0 | 0.00 | 0.06 | 0.00 | 93 | 1017.6 |
| 20260903122007 | 73 | 166 | 0.0 | 0.0 | 0.00 | 0.06 | 0.00 | 93 | 1017.7 |
| 20260903121528 | 73 | 165 | 0.0 | 0.0 | 0.00 | 0.06 | 0.00 | 94 | 1017.6 |
| 20260903121005 | 72 | 165 | 0.0 | 0.0 | 0.00 | 0.06 | 0.00 | 93 | 1017.6 |
| 20260903120504 | 72 | 166 | 0.0 | 0.0 | 0.00 | 0.06 | 0.00 | 93 | 1017.7 |
| 20260903120005 | 71 | 166 | 0.0 | 0.0 | 0.00 | 0.06 | 0.00 | 93 | 1017.7 |